This is the latest recevied weather packets stored in our database for station/object AD6NH. If no packets are shown the sender has not sent any weather packets the latest 10 day(s).
| Time | Temp. | Humidity | Pressure | Rain* | Wind** | Luminosity | Snow |
|---|---|---|---|---|---|---|---|
| 1778007423 | 18.89° C | 56% | 1016.1 hPa | 0 mm | - | - | - |
| 1778006823 | 18.89° C | 55% | 1016 hPa | 0 mm | - | - | - |
| 1778006223 | 18.89° C | 55% | 1016 hPa | 0 mm | - | - | - |
| 1778005623 | 18.89° C | 53% | 1015.9 hPa | 0 mm | - | - | - |
| 1778005023 | 18.89° C | 54% | 1015.9 hPa | 0 mm | - | - | - |
| 1778004423 | 20.56° C | 52% | 1015.7 hPa | 0 mm | - | - | - |
| 1778003823 | 18.89° C | 57% | 1015.6 hPa | 0 mm | - | - | - |
| 1778003222 | 18.89° C | 57% | 1015.6 hPa | 0 mm | - | - | - |
| 1778002623 | 18.33° C | 59% | 1015.5 hPa | 0 mm | - | - | - |
| 1778002023 | 18.89° C | 56% | 1015.5 hPa | 0 mm | - | - | - |
| 1778001422 | 18.89° C | 56% | 1015.4 hPa | 0 mm | - | - | - |
| 1778000823 | 19.44° C | 57% | 1015.3 hPa | 0 mm | - | - | - |
| 1778000223 | 18.33° C | 63% | 1015.3 hPa | 0 mm | - | - | - |
| 1777999623 | 18.33° C | 61% | 1015.2 hPa | 0 mm | - | - | - |
| 1777999023 | 17.78° C | 62% | 1015.1 hPa | 0 mm | - | - | - |
| 1777998422 | 18.33° C | 64% | 1015 hPa | 0 mm | - | - | - |
| 1777997823 | 17.78° C | 62% | 1015 hPa | 0 mm | - | - | - |
| 1777997223 | 17.22° C | 68% | 1015 hPa | 0 mm | - | - | - |
| 1777996622 | 16.67° C | 70% | 1015 hPa | 0 mm | - | - | - |
| 1777996022 | 17.22° C | 69% | 1015.1 hPa | 0 mm | - | - | - |
| 1777995423 | 16.11° C | 74% | 1015.1 hPa | 0 mm | - | - | - |
| 1777994823 | 15.56° C | 79% | 1015 hPa | 0 mm | - | - | - |
| 1777994223 | 15.56° C | 79% | 1014.9 hPa | 0 mm | - | - | - |
| 1777993622 | 15° C | 80% | 1015 hPa | 0 mm | - | - | - |
| 1777993022 | 14.44° C | 82% | 1014.8 hPa | 0 mm | - | - | - |
* Rain latest hour (hover to see other rain measurements)
** Current wind speed in m/s (hover to see current wind gust speed)